Monroe, WI

8:55 PM CST on February 13, 2016 (GMT -0600)
Monroe Municipal

Weather History for KEFT - October, 2013

Change the Weather History Date:

Thursday, October 31, 2013

  Actual Average (KRFD) Record (KRFD)
Temperature  
Mean Temperature 52 °F 46 °F  
Max Temperature 61 °F 56 °F 84 °F (1950)
Min Temperature 42 °F 37 °F 14 °F (1925)
Degree Days  
Heating Degree Days 14 19  
Month to date heating degree days 421  
Since 1 July heating degree days 553  
Cooling Degree Days 0 0  
Month to date cooling degree days 9  
Year to date cooling degree days 820  
Growing Degree Days 2 (Base 50)    
Moisture  
Dew Point 55 °F    
Average Humidity 100    
Maximum Humidity 100    
Minimum Humidity 100    
Precipitation  
Precipitation 0.59 in 0.09 in 2.51 in (1919)
Month to date precipitation 2.67  
Year to date precipitation 31.68  
Snow  
Snow 0.00 in 0.00 in T in (1935)
Month to date snowfall 0.1  
Since 1 July snowfall 0.1  
Since 1 September snowfall 0.1  
Snow Depth -    
Sea Level Pressure  
Sea Level Pressure 29.45 in    
Wind  
Wind Speed 14 mph (SW)    
Max Wind Speed 22 mph    
Max Gust Speed 30 mph    
Visibility 7 miles    
Events Rain    
T = Trace of Precipitation, MM = Missing Value Source: NWS Daily Summary

Daily Weather History Graph

Daily Weather History Graph

Search for Another Location

Airport or City:

Trip Planner

Search our weather history database for the weather conditions in past years. The results will help you decide how hot, cold, wet, or windy it might be!

Date:

Astronomy

Oct. 31, 2013 Rise Set
Actual Time 7:31 AM CDT 5:52 PM CDT
Civil Twilight 7:01 AM CDT 6:21 PM CDT
Nautical Twilight 6:28 AM CDT 6:54 PM CDT
Astronomical Twilight 5:55 AM CDT 7:27 PM CDT
Moon 4:16 AM CDT (10/31) 4:13 PM CDT (10/31)
Length of Visible Light 11h 19m
Length of Day
10h 20m
Waning Crescent, 10% of the Moon is Illuminated
Oct 31
Waning Crescent
Nov 3
New
Nov 9
First Quarter
Nov 17
Full
Nov 25
Last Quarter

Hourly Weather History & Observations

Time (CDT) Temp. Windchill Dew Point Humidity Pressure Visibility Wind Dir Wind Speed Gust Speed Precip Events Conditions
12:15 AM 57.4 °F - 57.4 °F 100% 29.71 in 7.0 mi South 13.8 mph - N/A   Overcast
12:35 AM 57.6 °F - 57.6 °F 100% 29.69 in 7.0 mi South 10.4 mph - N/A   Overcast
12:55 AM 58.1 °F - 58.1 °F 100% 29.68 in 10.0 mi South 11.5 mph 18.4 mph N/A   Overcast
1:15 AM 58.1 °F - 58.1 °F 100% 29.67 in 7.0 mi South 13.8 mph 20.7 mph N/A   Overcast
1:35 AM 58.3 °F - 58.3 °F 100% 29.67 in 7.0 mi SSW 11.5 mph - N/A   Overcast
1:55 AM 58.1 °F - 58.1 °F 100% 29.66 in 10.0 mi SSW 12.7 mph - N/A   Overcast
2:15 AM 58.1 °F - 58.1 °F 100% 29.65 in 10.0 mi SSW 11.5 mph - N/A   Mostly Cloudy
2:35 AM 58.1 °F - 58.1 °F 100% 29.62 in 10.0 mi South 13.8 mph - N/A   Mostly Cloudy
2:55 AM 58.5 °F - 58.5 °F 100% 29.63 in 10.0 mi SW 10.4 mph - N/A   Mostly Cloudy
3:15 AM 59.0 °F - 59.0 °F 100% 29.62 in 10.0 mi SSW 9.2 mph - N/A   Overcast
3:35 AM 59.0 °F - 59.0 °F 100% 29.61 in 10.0 mi SSW 9.2 mph - N/A   Overcast
3:55 AM 59.0 °F - 59.0 °F 100% 29.59 in 7.0 mi South 10.4 mph - N/A   Overcast
4:15 AM 59.4 °F - 59.4 °F 100% 29.59 in 2.0 mi SSW 12.7 mph - N/A   Overcast
4:35 AM 59.9 °F - 59.9 °F 100% 29.58 in 1.2 mi SSW 11.5 mph - N/A   Overcast
4:55 AM 60.4 °F - 60.4 °F 100% 29.57 in 5.0 mi SSW 11.5 mph - N/A   Overcast
5:15 AM 60.8 °F - 60.8 °F 100% 29.57 in 5.0 mi SSW 13.8 mph - N/A   Overcast
5:35 AM 60.8 °F - 60.8 °F 100% 29.57 in 7.0 mi SSW 15.0 mph - 0.01 in Rain Rain
5:55 AM 60.8 °F - 60.8 °F 100% 29.56 in 7.0 mi South 15.0 mph 18.4 mph 0.02 in Rain Rain
6:15 AM 60.8 °F - 60.8 °F 100% 29.55 in 5.0 mi South 9.2 mph - 0.02 in Rain Light Rain
6:35 AM 60.8 °F - 60.8 °F 100% 29.54 in 5.0 mi South 13.8 mph - 0.03 in Rain Rain
6:55 AM 60.8 °F - 60.8 °F 100% 29.52 in 4.0 mi South 17.3 mph 23.0 mph 0.05 in Rain Rain
7:15 AM 60.8 °F - 60.8 °F 100% 29.52 in 5.0 mi South 15.0 mph - 0.01 in Rain Light Rain
7:35 AM 60.8 °F - 60.8 °F 100% 29.51 in 5.0 mi South 15.0 mph - 0.04 in Rain Rain
7:55 AM 60.8 °F - 60.8 °F 100% 29.51 in 4.0 mi SSW 13.8 mph 21.9 mph 0.04 in   Overcast
8:15 AM 60.8 °F - 60.8 °F 100% 29.52 in 1.8 mi SSW 15.0 mph 20.7 mph N/A   Overcast
8:35 AM 60.8 °F - 60.8 °F 100% 29.51 in 1.5 mi SSW 13.8 mph - 0.01 in   Drizzle
8:55 AM 60.8 °F - 60.8 °F 100% 29.51 in 1.8 mi SSW 13.8 mph - 0.02 in   Drizzle
9:15 AM 60.8 °F - 60.8 °F 100% 29.50 in 2.0 mi SW 12.7 mph - 0.02 in Rain Rain
9:35 AM 60.8 °F - 60.8 °F 100% 29.49 in 2.5 mi SSW 12.7 mph - 0.02 in   Overcast
9:55 AM 61.0 °F - 61.0 °F 100% 29.48 in 1.2 mi SSW 10.4 mph 17.3 mph 0.02 in   Overcast
10:15 AM 61.0 °F - 61.0 °F 100% 29.47 in 1.5 mi SSW 10.4 mph - N/A   Light Drizzle
10:35 AM 60.8 °F - 60.8 °F 100% 29.46 in 1.8 mi SSW 15.0 mph - N/A   Overcast
10:55 AM 61.0 °F - 61.0 °F 100% 29.45 in 1.5 mi SSW 11.5 mph - N/A   Overcast
11:15 AM 61.0 °F - 61.0 °F 100% 29.44 in 3.0 mi SSW 12.7 mph - 0.04 in Rain Light Rain
11:35 AM 61.0 °F - 61.0 °F 100% 29.43 in 2.0 mi SW 12.7 mph - 0.12 in Rain Heavy Rain
11:55 AM 60.8 °F - 60.8 °F 100% 29.42 in 5.0 mi West 10.4 mph - 0.20 in Rain Light Rain
12:15 PM 60.4 °F - 60.4 °F 100% 29.41 in 7.0 mi WSW 10.4 mph - N/A Rain Rain
12:35 PM 60.1 °F - 60.1 °F 100% 29.40 in 10.0 mi WSW 12.7 mph - N/A   Drizzle
12:55 PM 59.9 °F - 59.9 °F 100% 29.39 in 7.0 mi SW 10.4 mph - 0.02 in Rain Light Rain
1:15 PM 59.5 °F - 59.5 °F 100% 29.38 in 7.0 mi WSW 11.5 mph - 0.02 in Rain Rain
1:35 PM 59.2 °F - 59.2 °F 100% 29.37 in 7.0 mi WSW 12.7 mph - 0.04 in Rain Rain
1:55 PM 58.8 °F - 58.8 °F 100% 29.36 in 5.0 mi WSW 13.8 mph - 0.06 in Rain Rain
2:15 PM 58.3 °F - 58.3 °F 100% 29.34 in 7.0 mi West 21.9 mph - 0.02 in Rain Light Rain
2:35 PM 56.1 °F - 56.1 °F 100% 29.34 in 7.0 mi West 17.3 mph 29.9 mph 0.05 in Rain Rain
2:55 PM 54.9 °F - 54.9 °F 100% 29.33 in 5.0 mi West 16.1 mph 21.9 mph 0.09 in Rain Rain
3:15 PM 54.3 °F - 54.3 °F 100% 29.31 in 7.0 mi WNW 18.4 mph 24.2 mph 0.01 in Rain Light Rain
3:35 PM 54.0 °F - 54.0 °F 100% 29.31 in 7.0 mi West 16.1 mph 24.2 mph 0.02 in Rain Rain
3:55 PM 52.9 °F - 52.9 °F 100% 29.29 in 10.0 mi WNW 18.4 mph 25.3 mph 0.03 in Rain Rain
4:15 PM 52.0 °F - 52.0 °F 100% 29.29 in 10.0 mi WNW 18.4 mph 23.0 mph 0.01 in Rain Light Rain
4:35 PM 50.9 °F - 50.9 °F 100% 29.30 in 10.0 mi West 13.8 mph 23.0 mph 0.01 in Rain Light Rain
4:55 PM 50.2 °F - 50.2 °F 100% 29.30 in 7.0 mi WNW 16.1 mph 25.3 mph 0.03 in Rain Light Rain
5:15 PM 49.6 °F - 49.6 °F 100% 29.31 in 10.0 mi West 18.4 mph 24.2 mph 0.01 in Rain Light Rain
5:35 PM 49.1 °F - 49.1 °F 100% 29.31 in 10.0 mi West 16.1 mph 21.9 mph 0.01 in   Drizzle
5:55 PM 48.2 °F - 48.2 °F 100% 29.32 in 10.0 mi West 16.1 mph 24.2 mph 0.01 in   Light Drizzle
6:15 PM 47.7 °F - 47.7 °F 100% 29.33 in 10.0 mi West 17.3 mph - N/A   Overcast
6:35 PM 46.8 °F - 46.8 °F 100% 29.33 in 10.0 mi West 18.4 mph 25.3 mph N/A   Overcast
6:55 PM 46.4 °F 40.1 °F 46.4 °F 100% 29.34 in 10.0 mi West 15.0 mph 21.9 mph N/A   Light Drizzle
7:15 PM 45.7 °F 38.6 °F 45.7 °F 100% 29.33 in 10.0 mi West 17.3 mph 26.5 mph N/A   Overcast
7:35 PM 45.5 °F 37.8 °F 45.5 °F 100% 29.34 in 10.0 mi West 19.6 mph 23.0 mph N/A   Light Drizzle
7:55 PM 44.8 °F 36.9 °F 44.8 °F 100% 29.35 in 10.0 mi West 19.6 mph 28.8 mph N/A   Overcast
8:15 PM 44.6 °F 37.8 °F 44.6 °F 100% 29.34 in 10.0 mi West 15.0 mph 21.9 mph N/A   Overcast
8:35 PM 43.9 °F 35.9 °F 43.9 °F 100% 29.34 in 10.0 mi West 18.4 mph 24.2 mph N/A   Overcast
8:55 PM 43.5 °F 36.4 °F 43.5 °F 100% 29.33 in 10.0 mi West 15.0 mph 23.0 mph N/A   Light Drizzle
9:15 PM 43.0 °F 34.0 °F 43.0 °F 100% 29.31 in 10.0 mi West 21.9 mph 25.3 mph N/A   Overcast
9:35 PM 42.8 °F 34.3 °F 42.8 °F 100% 29.33 in 10.0 mi West 19.6 mph 25.3 mph N/A   Scattered Clouds
9:55 PM 42.6 °F 34.0 °F 42.6 °F 100% 29.33 in 10.0 mi West 19.6 mph 26.5 mph N/A   Mostly Cloudy
10:15 PM 43.0 °F 34.8 °F 43.0 °F 100% 29.36 in 10.0 mi West 18.4 mph 25.3 mph N/A   Overcast
10:35 PM 42.8 °F 34.0 °F 42.8 °F 100% 29.36 in 10.0 mi West 20.7 mph 27.6 mph N/A   Overcast
10:55 PM 42.8 °F 34.8 °F 42.8 °F 100% 29.37 in 10.0 mi West 17.3 mph 26.5 mph N/A   Overcast
11:15 PM 42.8 °F 34.8 °F 42.8 °F 100% 29.37 in 10.0 mi WSW 17.3 mph 25.3 mph N/A   Overcast
11:35 PM 42.4 °F 34.4 °F 42.4 °F 100% 29.38 in 10.0 mi West 17.3 mph 23.0 mph N/A   Overcast
11:55 PM 42.4 °F 34.1 °F 42.4 °F 100% 29.38 in 10.0 mi WSW 18.4 mph 25.3 mph N/A   Overcast